Time,TemperatureF,DewpointF,PressureIn,WindDirection,WindDirectionDegrees,WindSpeedMPH,WindSpeedGustMPH,Humidity,HourlyPrecipIn,Conditions,Clouds,dailyrainin,SoftwareType,DateUTC
2013-08-27 00:12:00,68.4,61.3,29.94,SSE,157,0.0,-999.0,78,-99.99,,,0.00,Acu-Link.com,2013-08-27 04:12:00,
2013-08-27 00:27:00,68.0,61.2,29.94,ENE,67,0.0,-999.0,79,-99.99,,,0.00,Acu-Link.com,2013-08-27 04:27:00,
2013-08-27 00:42:00,67.6,60.8,29.94,SSW,202,0.0,-999.0,79,-99.99,,,0.00,Acu-Link.com,2013-08-27 04:42:00,
2013-08-27 00:58:00,67.6,61.2,29.93,SW,225,0.0,-999.0,80,-99.99,,,0.00,Acu-Link.com,2013-08-27 04:58:00,
2013-08-27 01:13:00,67.8,61.4,29.93,SE,135,0.0,-999.0,80,-99.99,,,0.00,Acu-Link.com,2013-08-27 05:13:00,
2013-08-27 01:28:00,68.2,61.4,29.91,WNW,292,0.0,-999.0,79,-99.99,,,0.00,Acu-Link.com,2013-08-27 05:28:00,
2013-08-27 01:43:00,68.7,61.6,29.91,SE,135,0.0,-999.0,78,-99.99,,,0.00,Acu-Link.com,2013-08-27 05:43:00,
2013-08-27 01:59:00,69.1,61.6,29.91,West,270,3.7,-999.0,77,-99.99,,,0.00,Acu-Link.com,2013-08-27 05:59:00,
2013-08-27 02:14:00,69.1,61.6,29.91,SSW,202,4.2,-999.0,77,-99.99,,,0.00,Acu-Link.com,2013-08-27 06:14:00,
2013-08-27 02:29:00,69.3,61.8,29.91,WSW,247,2.7,-999.0,77,-99.99,,,0.00,Acu-Link.com,2013-08-27 06:29:00,
2013-08-27 02:44:00,69.3,61.4,29.90,SW,225,0.0,-999.0,76,-99.99,,,0.00,Acu-Link.com,2013-08-27 06:44:00,
2013-08-27 02:59:00,69.4,61.1,29.89,NW,315,0.0,-999.0,75,-99.99,,,0.00,Acu-Link.com,2013-08-27 06:59:00,
2013-08-27 03:15:00,70.3,61.2,29.89,SW,225,1.1,-999.0,73,-99.99,,,0.00,Acu-Link.com,2013-08-27 07:15:00,
2013-08-27 03:30:00,70.5,61.0,29.89,West,270,1.7,-999.0,72,-99.99,,,0.00,Acu-Link.com,2013-08-27 07:30:00,
2013-08-27 03:45:00,70.7,61.2,29.89,WSW,247,1.7,-999.0,72,-99.99,,,0.00,Acu-Link.com,2013-08-27 07:45:00,
2013-08-27 04:00:00,71.1,61.2,29.88,West,270,0.0,-999.0,71,-99.99,,,0.00,Acu-Link.com,2013-08-27 08:00:00,
2013-08-27 04:17:00,71.1,61.2,29.88,West,270,3.2,-999.0,71,-99.99,,,0.00,Acu-Link.com,2013-08-27 08:17:00,
2013-08-27 04:33:00,71.1,61.2,29.88,WSW,247,3.7,-999.0,71,-99.99,,,0.00,Acu-Link.com,2013-08-27 08:33:00,
2013-08-27 04:48:00,71.1,61.2,29.89,SW,225,3.7,-999.0,71,-99.99,,,0.00,Acu-Link.com,2013-08-27 08:48:00,
2013-08-27 05:03:00,71.1,60.8,29.89,West,270,1.1,-999.0,70,-99.99,,,0.00,Acu-Link.com,2013-08-27 09:03:00,
2013-08-27 05:18:00,71.1,60.8,29.88,WSW,247,1.1,-999.0,70,-99.99,,,0.00,Acu-Link.com,2013-08-27 09:18:00,
2013-08-27 05:33:00,70.9,60.6,29.88,SW,225,1.1,-999.0,70,-99.99,,,0.00,Acu-Link.com,2013-08-27 09:33:00,
2013-08-27 05:48:00,70.5,60.6,29.88,West,270,0.0,-999.0,71,-99.99,,,0.00,Acu-Link.com,2013-08-27 09:48:00,
2013-08-27 06:03:00,69.8,60.4,29.87,SSE,157,0.0,-999.0,72,-99.99,,,0.00,Acu-Link.com,2013-08-27 10:03:00,
2013-08-27 06:19:00,70.0,60.5,29.88,WSW,247,2.7,-999.0,72,-99.99,,,0.00,Acu-Link.com,2013-08-27 10:19:00,
2013-08-27 06:34:00,70.2,60.7,29.88,WSW,247,2.2,-999.0,72,-99.99,,,0.00,Acu-Link.com,2013-08-27 10:34:00,
2013-08-27 06:49:00,70.3,61.6,29.89,West,270,2.7,-999.0,74,-99.99,,,0.00,Acu-Link.com,2013-08-27 10:49:00,
2013-08-27 07:04:00,69.4,61.9,29.88,SSW,202,0.0,-999.0,77,-99.99,,,0.00,Acu-Link.com,2013-08-27 11:04:00,
2013-08-27 07:20:00,69.4,62.2,29.88,SSE,157,0.0,-999.0,78,-99.99,,,0.00,Acu-Link.com,2013-08-27 11:20:00,
2013-08-27 07:35:00,70.0,62.8,29.88,WSW,247,3.2,-999.0,78,-99.99,,,0.00,Acu-Link.com,2013-08-27 11:35:00,
2013-08-27 07:50:00,72.5,63.7,29.88,WSW,247,2.7,-999.0,74,-99.99,,,0.00,Acu-Link.com,2013-08-27 11:50:00,
2013-08-27 08:05:00,72.0,63.2,29.88,SW,225,3.7,-999.0,74,-99.99,,,0.00,Acu-Link.com,2013-08-27 12:05:00,
2013-08-27 08:21:00,72.9,63.7,29.88,WSW,247,2.7,-999.0,73,-99.99,,,0.00,Acu-Link.com,2013-08-27 12:21:00,
2013-08-27 08:36:00,76.3,64.9,29.87,SSW,202,1.7,-999.0,68,-99.99,,,0.00,Acu-Link.com,2013-08-27 12:36:00,
2013-08-27 08:51:00,77.4,66.0,29.87,SW,225,2.7,-999.0,68,-99.99,,,0.00,Acu-Link.com,2013-08-27 12:51:00,
2013-08-27 09:06:00,79.9,66.6,29.87,SW,225,3.2,-999.0,64,-99.99,,,0.00,Acu-Link.com,2013-08-27 13:06:00,
2013-08-27 09:22:00,77.7,66.3,29.86,West,270,3.7,-999.0,68,-99.99,,,0.00,Acu-Link.com,2013-08-27 13:22:00,
2013-08-27 09:37:00,79.2,66.8,29.86,WSW,247,3.7,-999.0,66,-99.99,,,0.00,Acu-Link.com,2013-08-27 13:37:00,
2013-08-27 09:52:00,79.7,67.3,29.87,NNW,337,2.7,-999.0,66,-99.99,,,0.00,Acu-Link.com,2013-08-27 13:52:00,
2013-08-27 10:07:00,79.5,67.1,29.87,North,0,2.2,-999.0,66,-99.99,,,0.00,Acu-Link.com,2013-08-27 14:07:00,
2013-08-27 10:23:00,81.3,68.4,29.86,SSW,202,2.7,-999.0,65,-99.99,,,0.00,Acu-Link.com,2013-08-27 14:23:00,
2013-08-27 10:38:00,82.6,68.7,29.86,NNW,337,2.7,-999.0,63,-99.99,,,0.00,Acu-Link.com,2013-08-27 14:38:00,
2013-08-27 10:53:00,83.7,69.7,29.86,NE,45,1.7,-999.0,63,-99.99,,,0.00,Acu-Link.com,2013-08-27 14:53:00,
2013-08-27 11:08:00,84.0,69.6,29.86,NE,45,1.7,-999.0,62,-99.99,,,0.00,Acu-Link.com,2013-08-27 15:08:00,
2013-08-27 11:23:00,85.3,69.8,29.85,SW,225,6.3,-999.0,60,-99.99,,,0.00,Acu-Link.com,2013-08-27 15:23:00,
2013-08-27 11:39:00,84.9,68.9,29.86,NW,315,2.7,-999.0,59,-99.99,,,0.00,Acu-Link.com,2013-08-27 15:39:00,
2013-08-27 11:54:00,84.9,68.9,29.85,WSW,247,4.7,-999.0,59,-99.99,,,0.00,Acu-Link.com,2013-08-27 15:54:00,
2013-08-27 12:10:00,85.8,69.8,29.84,SSE,157,1.1,-999.0,59,-99.99,,,0.00,Acu-Link.com,2013-08-27 16:10:00,
2013-08-27 12:25:00,86.0,70.0,29.84,West,270,2.2,-999.0,59,-99.99,,,0.00,Acu-Link.com,2013-08-27 16:25:00,
2013-08-27 12:40:00,86.4,69.8,29.84,North,0,2.7,-999.0,58,-99.99,,,0.00,Acu-Link.com,2013-08-27 16:40:00,
2013-08-27 12:55:00,85.3,69.3,29.84,SSW,202,3.2,-999.0,59,-99.99,,,0.00,Acu-Link.com,2013-08-27 16:55:00,
2013-08-27 13:10:00,87.6,69.9,29.84,West,270,4.7,-999.0,56,-99.99,,,0.00,Acu-Link.com,2013-08-27 17:10:00,
2013-08-27 13:26:00,86.9,70.8,29.84,NNE,22,6.8,-999.0,59,-99.99,,,0.00,Acu-Link.com,2013-08-27 17:26:00,
2013-08-27 13:41:00,88.7,71.0,29.83,SSW,202,1.7,-999.0,56,-99.99,,,0.00,Acu-Link.com,2013-08-27 17:41:00,
2013-08-27 13:57:00,88.9,70.6,29.83,West,270,2.7,-999.0,55,-99.99,,,0.00,Acu-Link.com,2013-08-27 17:57:00,
2013-08-27 14:12:00,85.6,68.1,29.83,NNE,22,3.7,-999.0,56,-99.99,,,0.00,Acu-Link.com,2013-08-27 18:12:00,
2013-08-27 14:27:00,87.3,69.1,29.82,NNW,337,4.2,-999.0,55,-99.99,,,0.00,Acu-Link.com,2013-08-27 18:27:00,
2013-08-27 14:42:00,87.4,70.3,29.82,SSE,157,2.2,-999.0,57,-99.99,,,0.00,Acu-Link.com,2013-08-27 18:42:00,
2013-08-27 14:58:00,86.5,69.4,29.81,South,180,1.7,-999.0,57,-99.99,,,0.00,Acu-Link.com,2013-08-27 18:58:00,
2013-08-27 15:13:00,85.8,69.8,29.82,NE,45,6.3,-999.0,59,-99.99,,,0.00,Acu-Link.com,2013-08-27 19:13:00,
2013-08-27 15:28:00,85.6,68.6,29.82,WNW,292,3.2,-999.0,57,-99.99,,,0.00,Acu-Link.com,2013-08-27 19:28:00,
2013-08-27 15:43:00,85.3,68.8,29.82,West,270,4.2,-999.0,58,-99.99,,,0.00,Acu-Link.com,2013-08-27 19:43:00,
2013-08-27 15:58:00,85.1,69.1,29.83,NW,315,0.0,-999.0,59,-99.99,,,0.00,Acu-Link.com,2013-08-27 19:58:00,
2013-08-27 16:14:00,86.2,69.1,29.83,ESE,112,1.7,-999.0,57,-99.99,,,0.00,Acu-Link.com,2013-08-27 20:14:00,
2013-08-27 16:29:00,87.1,69.5,29.83,South,180,0.0,-999.0,56,-99.99,,,0.00,Acu-Link.com,2013-08-27 20:29:00,
2013-08-27 16:44:00,86.5,69.4,29.83,NNW,337,2.7,-999.0,57,-99.99,,,0.00,Acu-Link.com,2013-08-27 20:44:00,
2013-08-27 16:59:00,86.9,69.3,29.83,NNE,22,1.1,-999.0,56,-99.99,,,0.00,Acu-Link.com,2013-08-27 20:59:00,
2013-08-27 18:00:00,85.8,70.8,29.84,WNW,292,0.0,-999.0,61,-99.99,,,0.00,Acu-Link.com,2013-08-27 22:00:00,
2013-08-27 18:15:00,84.6,69.6,29.83,NW,315,1.1,-999.0,61,-99.99,,,0.00,Acu-Link.com,2013-08-27 22:15:00,
2013-08-27 18:30:00,83.5,69.6,29.83,West,270,0.0,-999.0,63,-99.99,,,0.00,Acu-Link.com,2013-08-27 22:30:00,
2013-08-27 18:46:00,82.2,69.2,29.83,NNE,22,0.0,-999.0,65,-99.99,,,0.00,Acu-Link.com,2013-08-27 22:46:00,
2013-08-27 19:01:00,81.1,69.1,29.84,North,0,0.0,-999.0,67,-99.99,,,0.00,Acu-Link.com,2013-08-27 23:01:00,
2013-08-27 19:16:00,79.7,69.0,29.84,South,180,0.0,-999.0,70,-99.99,,,0.00,Acu-Link.com,2013-08-27 23:16:00,
2013-08-27 19:32:00,78.1,68.3,29.84,SSE,157,0.0,-999.0,72,-99.99,,,0.00,Acu-Link.com,2013-08-27 23:32:00,
2013-08-27 19:47:00,76.5,67.6,29.84,SSE,157,0.0,-999.0,74,-99.99,,,0.00,Acu-Link.com,2013-08-27 23:47:00,
2013-08-27 20:02:00,75.2,67.1,29.85,SW,225,0.0,-999.0,76,-99.99,,,0.00,Acu-Link.com,2013-08-28 00:02:00,
2013-08-27 20:17:00,73.9,66.6,29.85,SW,225,0.0,-999.0,78,-99.99,,,0.00,Acu-Link.com,2013-08-28 00:17:00,
2013-08-27 20:32:00,73.0,66.1,29.85,North,0,0.0,-999.0,79,-99.99,,,0.00,Acu-Link.com,2013-08-28 00:32:00,
2013-08-27 20:48:00,72.9,66.4,29.85,ESE,112,0.0,-999.0,80,-99.99,,,0.00,Acu-Link.com,2013-08-28 00:48:00,
2013-08-27 23:58:00,-999.0,-99.9,-100.00,North,-999,-999.0,-999.0,-999,-99.99,,,-99.99,Acu-Link.com,2013-08-28 03:58:00,